Location: Batang Balui
(2.7000°N, 113.7833°E)
Time: 23:26:49
(UTC+00:00)

Meteor 2-14 Rocket - Pass Details

Date: 03 December 2021
Orbit: 937 x 957 km, 82.5° (Epoch: 27 January)

Event Time Altitude Azimuth Distance (km) Brightness Sun altitude
Rises 10:44:51 0° 356° (N) 3,589 7.3 -8.0°
Reaches altitude 10° 10:47:19 10° 355° (N) 2,644 6.6 -8.6°
Maximum altitude 10:53:22 87° 266° (W) 942 4.5 -10.0°
Drops below altitude 10° 10:59:25 10° 178° (S) 2,646 7.0 -11.4°
Sets 11:01:54 0° 177° (S) 3,591 7.7 -11.9°
